Regional Weather Roundup
Issued by NWS

Home | Current Version | Previous Version | Graphics & Text | Print | Product List | Glossary On
Versions: 1 2 3 4 5 6 7 8 9 10 11 12 13 14 15 16 17 18 19 20 21 22 23 24 25 26 27 28 29 30 31 32 33 34 35 36 37 38 39 40 41 42 43 44 45 46 47 48 49 50
000
ASUS45 KBOI 231710
RWRID
WEATHER ROUNDUP FOR IDAHO
NATIONAL WEATHER SERVICE BOISE ID
1000 AM MST SUN NOV 23 2014

NOTE: "FAIR" INDICATES FEW OR NO CLOUDS BELOW 12000 FEET
WITH NO SIGNIFICANT WEATHER AND/OR OBSTRUCTIONS TO VISIBILITY

IDZ012-014-231800-
SOUTHWEST IDAHO


CITY           SKY/WX    TMP DP  RH WIND       PRES   REMARKS
BOISE          SUNNY     36  29  75 CALM      30.31S
CALDWELL       NOT AVBL
MOUNTAIN HOME  SUNNY     37  31  78 NW8       30.31R WCI  30
$$

IDZ016-017-231800-
SOUTHCENTRAL IDAHO


CITY           SKY/WX    TMP DP  RH WIND       PRES   REMARKS
BURLEY         LGT RAIN  34  24  67 W20G31    30.23R WCI  23
JEROME         SUNNY     33  25  72 SW23G29   30.26R WCI  21
TWIN FALLS     SUNNY     34  25  69 SW15      30.28R WCI  24
$$

IDZ019>023-231800-
SOUTHEAST IDAHO


CITY           SKY/WX    TMP DP  RH WIND       PRES   REMARKS
IDAHO FALLS    SUNNY     32  25  75 S15       30.13R WCI  22
POCATELLO      MOSUNNY   32  26  78 SW21      30.20R WCI  20
REXBURG        SUNNY     29  23  78 S14       30.11R WCI  18
$$

IDZ006-010-011-018-031-032-231800-
CENTRAL IDAHO MOUNTAINS


CITY           SKY/WX    TMP DP  RH WIND       PRES   REMARKS
MCCALL         CLOUDY    28  23  81 SE5       30.19R WCI  23
HAILEY         MOSUNNY   28  16  59 NW5       30.18R WCI  23
STANLEY          N/A     26  17  68 CALM      30.19R
SALMON         CLOUDY    30  25  80 NW3       30.16R
CHALLIS        CLOUDY    28  18  66 S3        30.15R
$$

IDZ002-004-006-007-026-231800-
NORTHERN IDAHO


CITY           SKY/WX    TMP DP  RH WIND       PRES   REMARKS
LEWISTON       CLOUDY    42  34  73 CALM      30.17S
LOWELL           N/A     35  34  96 CALM      30.25S
COEUR D`ALENE  CLOUDY    34  30  86 CALM      30.10F
MULLAN PASS    SNOW      26  23  88 VRB3G22   30.01S VSB 1/2
$$



USA.gov is the U.S. government's official web portal to all federal, state and local government web resources and services.